[[{"header":{"parameterUnit":"m.s-1","parameterCategory":1,"la1":30.2991,"la2":30.254,"lo1":-89.0895,"lo2":-89.0444,"dy":0.0017,"dx":0.0017,"nx":28,"ny":28,"refTime":"2025-11-05T09:00:00:Z","depth":0,"parameterNumber":2,"parameterNumberName":"U-component_of_WINDS"},"data":[0,0,0,0,0,0,0,0,0,0,0,0,0,0,0,0,0,0,0,0,0,0,0,0,0,0,0,0,0,0,0,0,0,0,0,0,0,0,0,0,0,0,0,0,0,0,0,0,0,0,0,0,0,0,0,0,0,0,-1.4441,-1.4441,0,-1.4446,-1.4446,-1.4446,-1.4369,-1.4367,-1.4365,-1.4363,-1.4371,-1.4374,-1.4376,0,0,0,0,0,0,0,0,0,0,0,0,0,-1.4369,-1.4371,-1.4441,-1.4441,-1.4441,-1.4446,-1.4446,-1.4446,-1.437,-1.4367,-1.4364,-1.4362,-1.4371,-1.4373,-1.4376,0,0,0,0,0,0,0,0,0,0,0,0,0,-1.439,-1.4371,-1.4441,-1.4404,-1.44,-1.4446,-1.4446,-1.4446,-1.437,-1.4367,-1.4364,-1.4361,-1.437,-1.4373,-1.4376,-1.446,0,0,-1.4386,-1.4388,0,0,0,0,0,0,0,0,-1.4389,-1.4393,-1.4409,-1.4406,-1.4403,-1.4404,-1.4424,-1.4451,-1.4371,-1.4382,-1.4363,-1.4359,-1.4385,-1.4387,-1.4395,-1.446,-1.446,-1.4387,-1.4389,-1.439,-1.4391,0,0,0,0,0,0,0,-1.4388,-1.4392,-1.4443,-1.4409,-1.4406,-1.4388,-1.4387,-1.4429,-1.4401,-1.4381,-1.4375,-1.4376,-1.4383,-1.4392,-1.4394,-1.446,-1.4386,-1.4389,-1.4391,-1.4393,-1.4597,-1.46,0,0,0,0,0,0,-1.4391,-1.4391,-1.4443,-1.4443,-1.4388,-1.4392,-1.4391,-1.4407,-1.44,-1.4396,-1.4379,-1.4373,-1.4388,-1.4391,-1.4394,-1.4494,-1.439,-1.4393,-1.4395,-1.4593,-1.4598,-1.4601,0,0,0,0,0,0,-1.4389,-1.4396,-1.4443,-1.4416,-1.442,-1.4396,-1.4414,-1.4408,-1.4417,-1.4399,-1.4394,-1.4393,-1.4385,-1.439,-1.4444,-1.4493,-1.4394,-1.4397,-1.4589,-1.4595,-1.46,-1.4692,0,0,0,0,0,0,-1.4388,-1.4396,-1.4427,-1.4417,-1.4422,-1.4492,-1.4417,-1.4411,-1.4423,-1.4415,-1.4411,-1.4408,-1.4383,-1.444,-1.4448,-1.4496,-1.44,-1.4585,-1.4592,-1.4598,-1.4685,-1.47,-1.4713,0,0,0,0,0,-1.4385,-1.4453,-1.4429,-1.4435,-1.446,-1.4495,-1.4498,-1.4467,-1.4427,-1.4459,-1.4447,-1.4408,-1.4486,-1.4446,-1.4454,-1.4504,-1.4582,-1.459,-1.4597,-1.4678,-1.4697,-1.4713,0,0,0,0,0,0,-1.4469,-1.4451,-1.4424,-1.449,-1.4494,-1.4482,-1.452,-1.4488,-1.4505,-1.4497,-1.4459,-1.4459,-1.452,-1.4517,-1.4473,-1.4585,-1.4527,-1.4537,-1.4586,-1.4603,-1.4617,-1.4618,-1.4403,0,0,0,0,0,-1.4495,-1.4524,-1.4507,-1.4567,-1.457,-1.4545,-1.4559,-1.4535,-1.4539,-1.4541,-1.4533,-1.454,-1.4566,-1.4584,-1.4606,-1.4683,-1.4683,-1.4721,-1.4735,-1.4747,-1.4757,-1.48,-1.4818,-1.4627,-1.4627,-1.4627,0,0,-1.455,-1.4543,-1.4564,-1.4583,-1.4584,-1.4617,-1.4547,-1.4584,-1.4609,-1.4547,-1.4599,-1.4593,-1.4598,-1.4664,-1.4693,-1.4664,-1.4809,-1.4757,-1.4766,-1.477,-1.481,-1.4828,-1.4844,-1.4632,-1.4631,-1.463,0,0,-1.4666,-1.4663,-1.4713,-1.4716,-1.4718,-1.4701,-1.4713,-1.4705,-1.4699,-1.475,-1.4705,-1.4734,-1.4779,-1.4785,-1.4794,-1.4913,-1.4879,-1.4921,-1.4996,-1.5039,-1.5054,-1.5067,-1.5113,-1.5129,-1.4931,-1.4931,-1.4931,0,-1.4734,-1.478,-1.4744,-1.4784,-1.4796,-1.474,-1.4792,-1.4796,-1.4806,-1.4816,-1.4782,-1.4839,-1.4837,-1.4906,-1.4936,-1.4943,-1.4958,-1.4923,-1.5054,-1.5067,-1.5079,-1.5123,-1.5139,-1.4936,-1.4936,-1.4935,-1.4935,0,-1.4865,-1.4898,-1.4939,-1.4949,-1.4965,-1.5011,-1.4983,-1.5003,-1.4978,-1.4965,-1.5019,-1.5015,-1.5038,-1.5052,-1.5027,-1.5118,-1.51,-1.506,-1.5002,-1.5103,-1.5144,-1.516,-1.4944,-1.4942,-1.4941,-1.4939,0,0,-1.5036,-1.5026,-1.5042,-1.5047,-1.5045,-1.5071,-1.5115,-1.5136,-1.5156,-1.5164,-1.5202,-1.5242,-1.5206,-1.5216,-1.5192,-1.5229,-1.5328,-1.5185,-1.5185,-1.5215,-1.5431,-1.5463,-1.5482,-1.5304,-1.5306,-1.5309,-1.5431,0,-1.5151,-1.5226,-1.5195,-1.5274,-1.5305,-1.5253,-1.5292,-1.5296,-1.5285,-1.5312,-1.5299,-1.533,-1.5278,-1.5285,-1.5318,-1.5308,-1.5371,-1.5299,-1.5342,-1.5344,-1.5346,-1.5503,-1.5536,-1.5652,-1.5447,-1.5449,-1.5451,0,-1.5297,-1.5311,-1.5393,-1.5387,-1.5399,-1.5435,-1.5453,-1.5477,-1.5482,-1.5471,-1.5483,-1.5451,-1.5496,-1.5435,-1.5499,-1.545,-1.5466,-1.5464,-1.5467,-1.5473,-1.5406,-1.5516,-1.5688,-1.5707,-1.5475,-1.5473,-1.5471,0,-1.5417,-1.5457,-1.5512,-1.5517,-1.5511,-1.5538,-1.5537,-1.5538,-1.5553,-1.5569,-1.5579,-1.56,-1.5612,-1.563,-1.5605,-1.5562,-1.5673,-1.5609,-1.5669,-1.567,-1.5697,-1.5696,-1.5877,-1.5701,-1.5701,-1.5701,-1.57,0,-1.5552,-1.5605,-1.5566,-1.56,-1.5658,-1.5622,-1.5682,-1.5675,-1.5676,-1.571,-1.5665,-1.5697,-1.5661,-1.569,-1.5671,-1.5729,-1.5733,-1.5728,-1.5723,-1.5734,-1.5736,-1.5746,-1.5739,-1.5705,-1.5704,-1.5703,-1.5703,0,-1.5697,-1.5673,-1.573,-1.572,-1.5718,-1.5762,-1.5754,-1.5786,-1.5771,-1.5814,-1.5822,-1.58,-1.5833,-1.5809,-1.5841,-1.5829,-1.5905,-1.5887,-1.5904,-1.59,-1.5962,-1.5958,-1.6159,-1.6186,-1.599,-1.5992,-1.5993,0,-1.5786,-1.5826,-1.582,-1.5838,-1.584,-1.587,-1.5886,-1.5852,-1.587,-1.5879,-1.5911,-1.5939,-1.596,-1.6015,-1.6003,-1.6029,-1.6013,-1.6082,-1.6017,-1.6027,-1.6018,-1.6018,-1.6023,-1.6096,-1.6098,-1.61,-1.6102,0,-1.5948,-1.5934,-1.5957,-1.5978,-1.5997,-1.6011,-1.6022,-1.604,-1.6006,-1.6029,-1.6061,-1.6078,-1.6111,-1.6141,-1.6162,-1.6162,-1.6128,-1.6122,-1.6138,-1.6151,-1.6161,-1.616,-1.5944,-1.6118,-1.6117,-1.6115,-1.6114,-1.6114,-1.607,-1.6104,-1.6105,-1.6134,-1.6138,-1.6149,-1.618,-1.6169,-1.6195,-1.6219,-1.6197,-1.6238,-1.6242,-1.6267,-1.6271,-1.6303,-1.6275,-1.6297,-1.6303,-1.631,-1.6321,-1.6153,-1.6307,-1.6306,-1.6306,-1.6305,-1.6305,0,-1.6232,-1.6231,-1.6257,-1.6273,-1.6296,-1.6259,-1.627,-1.6292,-1.6327,-1.6334,-1.6356,-1.6395,-1.6424,-1.6414,-1.644,-1.6468,-1.6453,-1.6477,-1.6476,-1.6478,-1.6342,-1.6328,-1.6488,-1.6488,-1.6488,-1.6488,-1.6488,-1.6488,-1.632,-1.6376,-1.6363,-1.6421,-1.6419,-1.6457,-1.6467,-1.6478,-1.6484,-1.6529,-1.6552,-1.6545,-1.6546,-1.6572,-1.6598,-1.6595,-1.6608,-1.6638,-1.663,-1.6505,-1.6487,-1.6469,-1.6456,-1.6641,-1.6641,-1.6763,-1.6764,-1.6765]},{"header":{"parameterUnit":"m.s-1","parameterCategory":1,"la1":30.2991,"la2":30.254,"lo1":-89.0895,"lo2":-89.0444,"dy":0.0017,"dx":0.0017,"nx":28,"ny":28,"refTime":"2025-11-05T09:00:00:Z","depth":0,"parameterNumber":3,"parameterNumberName":"V-component_of_WINDS"},"data":[0,0,0,0,0,0,0,0,0,0,0,0,0,0,0,0,0,0,0,0,0,0,0,0,0,0,0,0,0,0,0,0,0,0,0,0,0,0,0,0,0,0,0,0,0,0,0,0,0,0,0,0,0,0,0,0,0,0,-1.3181,-1.318,0,-1.3092,-1.3091,-1.309,-1.2964,-1.2962,-1.296,-1.2958,-1.287,-1.287,-1.287,0,0,0,0,0,0,0,0,0,0,0,0,0,-1.3247,-1.3246,-1.3181,-1.318,-1.3178,-1.3092,-1.3091,-1.3089,-1.2964,-1.2962,-1.2959,-1.2957,-1.287,-1.287,-1.2869,0,0,0,0,0,0,0,0,0,0,0,0,0,-1.3194,-1.3246,-1.3181,-1.3106,-1.3098,-1.3092,-1.309,-1.3089,-1.2965,-1.2962,-1.2958,-1.2955,-1.287,-1.287,-1.2869,-1.2931,0,0,-1.2868,-1.2868,0,0,0,0,0,0,0,0,-1.3197,-1.3192,-1.3118,-1.3111,-1.3102,-1.3035,-1.3082,-1.3036,-1.2966,-1.3016,-1.2958,-1.2954,-1.2928,-1.2923,-1.2913,-1.2927,-1.2923,-1.2868,-1.2868,-1.2867,-1.2867,0,0,0,0,0,0,0,-1.3201,-1.3195,-1.3145,-1.3117,-1.3107,-1.3078,-1.3067,-1.3072,-1.2991,-1.3011,-1.3002,-1.2993,-1.2923,-1.2914,-1.291,-1.2922,-1.2868,-1.2868,-1.2867,-1.2867,-1.2984,-1.2987,0,0,0,0,0,0,-1.3216,-1.3199,-1.3148,-1.3143,-1.3143,-1.3079,-1.3067,-1.306,-1.2991,-1.2977,-1.2995,-1.2987,-1.2916,-1.2911,-1.2907,-1.2975,-1.2867,-1.2867,-1.2867,-1.2981,-1.2985,-1.2988,0,0,0,0,0,0,-1.3217,-1.3212,-1.3152,-1.3168,-1.3158,-1.3081,-1.3075,-1.306,-1.3051,-1.2979,-1.2964,-1.3001,-1.2913,-1.2907,-1.2926,-1.297,-1.2867,-1.2866,-1.2977,-1.2982,-1.2986,-1.3112,0,0,0,0,0,0,-1.322,-1.3214,-1.3235,-1.317,-1.3158,-1.3172,-1.3078,-1.3061,-1.305,-1.3038,-1.298,-1.2967,-1.291,-1.2927,-1.2926,-1.2967,-1.2866,-1.2972,-1.2979,-1.2985,-1.3103,-1.312,-1.3135,0,0,0,0,0,-1.3223,-1.3274,-1.3237,-1.3231,-1.3183,-1.3175,-1.3168,-1.3101,-1.3054,-1.3075,-1.303,-1.2969,-1.2966,-1.293,-1.2927,-1.297,-1.2969,-1.2977,-1.2984,-1.3096,-1.3117,-1.3135,0,0,0,0,0,0,-1.3348,-1.3264,-1.3222,-1.3253,-1.3222,-1.3153,-1.3178,-1.3125,-1.3107,-1.3097,-1.3015,-1.3003,-1.3033,-1.3003,-1.2965,-1.3027,-1.2958,-1.2966,-1.3045,-1.3064,-1.3079,-1.3086,-1.2866,0,0,0,0,0,-1.3379,-1.3378,-1.3305,-1.3341,-1.3327,-1.3256,-1.325,-1.3201,-1.3165,-1.3151,-1.3107,-1.3076,-1.3068,-1.3064,-1.3053,-1.3099,-1.3085,-1.3127,-1.3143,-1.3156,-1.3163,-1.3187,-1.3205,-1.3013,-1.3013,-1.3013,0,0,-1.3443,-1.3398,-1.3402,-1.3365,-1.3334,-1.3336,-1.3245,-1.3251,-1.3252,-1.3153,-1.3167,-1.3134,-1.3094,-1.3127,-1.314,-1.3104,-1.3213,-1.3166,-1.3177,-1.3177,-1.3196,-1.3215,-1.3231,-1.3018,-1.3018,-1.3017,0,0,-1.3562,-1.3527,-1.3552,-1.3524,-1.3479,-1.3432,-1.3439,-1.3379,-1.3352,-1.3366,-1.3291,-1.3293,-1.328,-1.3255,-1.3241,-1.3352,-1.3296,-1.3351,-1.3434,-1.3458,-1.3473,-1.3486,-1.3526,-1.3542,-1.3359,-1.3359,-1.3359,0,-1.3647,-1.3646,-1.3573,-1.3583,-1.357,-1.3479,-1.3506,-1.3482,-1.3437,-1.3431,-1.3391,-1.3374,-1.3341,-1.3367,-1.3395,-1.3386,-1.3392,-1.3357,-1.3476,-1.3489,-1.35,-1.3537,-1.3553,-1.3366,-1.3365,-1.3364,-1.3364,0,-1.3754,-1.3755,-1.3782,-1.3739,-1.3729,-1.3748,-1.3679,-1.3677,-1.363,-1.3588,-1.3604,-1.3561,-1.354,-1.3543,-1.3497,-1.3563,-1.3542,-1.3491,-1.3421,-1.3526,-1.356,-1.3574,-1.3376,-1.3373,-1.3371,-1.337,0,0,-1.3947,-1.3865,-1.3876,-1.3856,-1.3801,-1.3801,-1.3817,-1.3795,-1.3796,-1.3769,-1.3781,-1.3773,-1.3725,-1.371,-1.366,-1.3681,-1.3774,-1.3627,-1.3625,-1.3656,-1.3845,-1.3885,-1.3902,-1.3736,-1.3739,-1.3741,-1.3849,0,-1.4055,-1.4075,-1.4011,-1.4048,-1.4048,-1.3964,-1.3978,-1.3947,-1.3908,-1.3904,-1.3862,-1.3858,-1.3795,-1.3785,-1.3802,-1.3759,-1.381,-1.375,-1.3748,-1.3749,-1.376,-1.392,-1.3961,-1.4065,-1.3862,-1.3864,-1.3865,0,-1.4182,-1.4161,-1.4198,-1.4143,-1.414,-1.4154,-1.413,-1.4127,-1.4091,-1.4061,-1.4045,-1.3988,-1.4001,-1.3934,-1.3952,-1.3913,-1.3908,-1.3887,-1.3889,-1.3886,-1.3813,-1.3921,-1.4096,-1.4112,-1.3886,-1.3884,-1.3883,0,-1.4319,-1.43,-1.432,-1.4306,-1.4242,-1.4253,-1.4227,-1.4188,-1.418,-1.4159,-1.4154,-1.4136,-1.4126,-1.4115,-1.4055,-1.4012,-1.4081,-1.4009,-1.4058,-1.4059,-1.4075,-1.4075,-1.4252,-1.4073,-1.4073,-1.4073,-1.4072,0,-1.4446,-1.4472,-1.4381,-1.4394,-1.4422,-1.4349,-1.4379,-1.4344,-1.431,-1.4316,-1.4242,-1.4249,-1.417,-1.4169,-1.4123,-1.4146,-1.4142,-1.412,-1.4107,-1.4126,-1.4129,-1.4122,-1.4113,-1.4077,-1.4076,-1.4075,-1.4074,0,-1.4603,-1.4543,-1.456,-1.4498,-1.4483,-1.4506,-1.4454,-1.4464,-1.4421,-1.4429,-1.4427,-1.4361,-1.4356,-1.4296,-1.4278,-1.4247,-1.4288,-1.4262,-1.43,-1.4292,-1.4344,-1.434,-1.4522,-1.4543,-1.4352,-1.4354,-1.4355,0,-1.4688,-1.4706,-1.4646,-1.4644,-1.4622,-1.4619,-1.4611,-1.4541,-1.4535,-1.4496,-1.4511,-1.45,-1.4488,-1.4484,-1.4436,-1.4422,-1.4395,-1.446,-1.4393,-1.4412,-1.4397,-1.4396,-1.4398,-1.4474,-1.4477,-1.4479,-1.448,0,-1.4844,-1.4814,-1.4803,-1.4784,-1.4776,-1.4757,-1.4733,-1.4737,-1.4659,-1.4657,-1.4651,-1.4641,-1.4623,-1.4614,-1.4592,-1.4567,-1.4512,-1.4502,-1.4513,-1.4532,-1.4554,-1.4543,-1.4339,-1.4498,-1.4496,-1.4495,-1.4494,-1.4493,-1.4967,-1.498,-1.4941,-1.4932,-1.4907,-1.4888,-1.4894,-1.4853,-1.4846,-1.4825,-1.4785,-1.4786,-1.4751,-1.4716,-1.4695,-1.4696,-1.4663,-1.4678,-1.4682,-1.4687,-1.4698,-1.4554,-1.4692,-1.4691,-1.4691,-1.469,-1.469,0,-1.512,-1.5091,-1.5084,-1.5054,-1.5048,-1.4996,-1.4968,-1.4967,-1.4968,-1.494,-1.4929,-1.4923,-1.4914,-1.4866,-1.4852,-1.4862,-1.4836,-1.486,-1.4859,-1.4854,-1.4728,-1.472,-1.4881,-1.4881,-1.4881,-1.4881,-1.4881,-1.4881,-1.5199,-1.5218,-1.5184,-1.5191,-1.5162,-1.5161,-1.515,-1.5132,-1.5109,-1.5106,-1.5098,-1.5066,-1.503,-1.5013,-1.5003,-1.4989,-1.4988,-1.5021,-1.4999,-1.4882,-1.4863,-1.4845,-1.4838,-1.5021,-1.5021,-1.5125,-1.5126,-1.5127]}]]